Precipitable_Water
1.28 1.29 1.30 1.30 1.29 1.28 1.18 1.09 0.99 0.87 0.88 0.96 0.95 1.05 1.03 0.99 1.02 1.06 1.06 1.03 1.05 1.09 1.10 1.14 1.16 1.12 1.10 1.08 1.07 1.10 1.12 1.15 1.16 1.18 1.19 1.19 1.17 1.16
1.27 1.24 1.25 1.29 1.29 1.28 1.21 1.19 1.13 0.94 0.81 0.96 1.02 1.02 1.06 1.05 1.10 1.06 1.04 1.10 1.16 1.15 1.14 1.17 1.13 1.10 1.10 1.07 1.06 1.08 1.11 1.13 1.15 1.17 1.18 1.17 1.14 1.12
1.23 1.24 1.21 1.28 1.25 1.23 1.20 1.20 1.12 1.07 0.88 0.96 1.05 1.12 1.10 1.12 1.12 1.18 1.23 1.18 1.17 1.21 1.21 1.20 1.16 1.13 1.11 1.08 1.09 1.10 1.11 1.13 1.13 1.13 1.13 1.10 1.08 1.05
1.17 1.19 1.22 1.26 1.24 1.24 1.20 1.17 1.13 1.12 1.00 0.92 1.03 1.08 1.10 1.16 1.19 1.17 1.18 1.16 1.12 1.21 1.21 1.17 1.15 1.13 1.11 1.09 1.08 1.09 1.08 1.07 1.06 1.06 1.05 1.03 0.99 0.97
1.25 1.22 1.20 1.22 1.20 1.22 1.21 1.16 1.15 1.11 1.06 0.99 0.99 1.10 1.12 1.15 1.13 1.16 1.13 1.11 1.08 1.09 1.11 1.11 1.10 1.07 1.05 1.03 1.04 1.04 1.03 1.01 0.99 0.96 0.96 0.94 0.92 0.90
1.26 1.28 1.26 1.23 1.21 1.21 1.21 1.18 1.14 1.10 1.12 1.05 1.02 1.02 1.05 1.09 1.10 1.03 1.01 1.05 1.03 1.06 1.10 1.08 1.06 1.03 1.01 1.01 1.01 0.98 0.97 0.95 0.94 0.92 0.90 0.87 0.85 0.82
1.24 1.27 1.27 1.28 1.28 1.25 1.22 1.18 1.15 1.09 1.07 1.04 1.00 1.01 1.01 0.99 0.99 1.03 0.99 1.01 1.00 1.02 0.99 0.98 0.97 0.98 0.97 0.95 0.96 0.94 0.92 0.90 0.87 0.84 0.80 0.76 0.74 0.72
1.06 1.17 1.24 1.26 1.25 1.24 1.24 1.22 1.18 1.08 1.04 1.03 1.01 0.96 0.98 1.00 1.02 1.00 0.97 0.92 0.85 0.98 0.93 0.88 0.92 0.89 0.91 0.90 0.90 0.88 0.85 0.83 0.79 0.75 0.74 0.69 0.64 0.60
0.98 1.01 1.06 1.13 1.16 1.17 1.16 1.14 1.13 1.09 1.06 1.02 0.96 0.96 0.96 1.01 1.01 0.96 0.95 0.93 0.89 0.91 0.90 0.82 0.85 0.82 0.85 0.85 0.83 0.81 0.79 0.75 0.69 0.66 0.64 0.61 0.57 0.55
0.95 0.96 0.97 0.99 1.02 1.02 1.00 0.97 0.95 0.96 0.97 0.98 0.97 0.94 0.95 0.98 0.97 0.96 0.94 0.91 0.88 0.87 0.88 0.76 0.80 0.77 0.80 0.80 0.79 0.76 0.73 0.67 0.64 0.61 0.59 0.56 0.54 0.50
0.94 0.94 0.96 0.96 0.99 0.99 0.93 0.88 0.86 0.87 0.90 0.92 0.93 0.93 0.94 0.95 0.96 0.95 0.89 0.86 0.80 0.79 0.82 0.78 0.75 0.73 0.73 0.72 0.73 0.72 0.68 0.64 0.60 0.56 0.52 0.49 0.46 0.42
0.91 0.93 0.97 0.99 1.01 1.01 0.97 0.93 0.88 0.88 0.88 0.88 0.89 0.89 0.91 0.91 0.93 0.93 0.90 0.83 0.79 0.73 0.77 0.73 0.71 0.70 0.63 0.68 0.67 0.65 0.60 0.58 0.52 0.48 0.43 0.39 0.37 0.33
0.89 0.90 0.93 0.99 1.03 1.01 1.01 0.97 0.92 0.92 0.89 0.88 0.87 0.86 0.86 0.85 0.85 0.86 0.85 0.82 0.76 0.72 0.74 0.72 0.66 0.64 0.61 0.58 0.57 0.54 0.49 0.44 0.41 0.37 0.32 0.30 0.28 0.26
0.94 0.94 0.95 0.99 1.00 1.00 0.99 0.96 0.92 0.89 0.84 0.81 0.78 0.77 0.76 0.76 0.76 0.77 0.77 0.75 0.73 0.70 0.70 0.68 0.62 0.59 0.55 0.48 0.42 0.39 0.38 0.34 0.29 0.26 0.25 0.24 0.23 0.23
0.91 0.88 0.86 0.85 0.87 0.89 0.90 0.89 0.87 0.82 0.77 0.75 0.73 0.71 0.70 0.70 0.68 0.67 0.66 0.65 0.62 0.59 0.55 0.52 0.48 0.44 0.40 0.35 0.29 0.28 0.25 0.23 0.23 0.21 0.21 0.20 0.21 0.22
0.88 0.82 0.89 0.85 0.87 0.79 0.79 0.79 0.75 0.71 0.68 0.64 0.62 0.63 0.63 0.59 0.56 0.54 0.51 0.47 0.43 0.40 0.38 0.36 0.33 0.31 0.26 0.24 0.22 0.20 0.19 0.17 0.20 0.19 0.20 0.21 0.22 0.23
0.80 0.78 0.75 0.73 0.73 0.71 0.69 0.68 0.68 0.65 0.63 0.63 0.57 0.54 0.51 0.48 0.45 0.43 0.40 0.36 0.31 0.27 0.25 0.24 0.23 0.20 0.19 0.18 0.18 0.18 0.17 0.17 0.18 0.18 0.19 0.19 0.20 0.24
0.73 0.70 0.68 0.67 0.64 0.63 0.61 0.57 0.56 0.54 0.51 0.49 0.46 0.43 0.40 0.37 0.34 0.31 0.29 0.25 0.22 0.20 0.19 0.20 0.20 0.20 0.20 0.20 0.21 0.17 0.16 0.16 0.16 0.17 0.19 0.18 0.17 0.22
0.61 0.59 0.55 0.52 0.49 0.47 0.45 0.44 0.42 0.41 0.41 0.39 0.36 0.33 0.30 0.28 0.26 0.24 0.22 0.20 0.19 0.18 0.18 0.18 0.17 0.16 0.15 0.15 0.18 0.18 0.15 0.16 0.15 0.15 0.17 0.17 0.17 0.19
0.44 0.42 0.41 0.40 0.39 0.39 0.38 0.38 0.37 0.37 0.35 0.32 0.29 0.27 0.25 0.23 0.22 0.21 0.20 0.19 0.17 0.17 0.16 0.16 0.15 0.13 0.12 0.12 0.12 0.16 0.20 0.16 0.14 0.14 0.15 0.18 0.19 0.21
0.39 0.38 0.38 0.38 0.37 0.37 0.35 0.32 0.30 0.28 0.27 0.26 0.24 0.23 0.22 0.20 0.18 0.16 0.15 0.16 0.16 0.16 0.15 0.14 0.14 0.15 0.15 0.16 0.14 0.14 0.15 0.18 0.17 0.15 0.16 0.17 0.16 0.19
0.35 0.34 0.33 0.31 0.29 0.28 0.27 0.26 0.24 0.23 0.22 0.22 0.21 0.20 0.19 0.18 0.17 0.17 0.17 0.16 0.15 0.15 0.14 0.15 0.16 0.15 0.15 0.14 0.13 0.13 0.13 0.15 0.16 0.18 0.20 0.21 0.19 0.16
0.31 0.29 0.28 0.26 0.25 0.24 0.24 0.23 0.21 0.20 0.20 0.19 0.18 0.18 0.18 0.17 0.17 0.16 0.16 0.15 0.14 0.14 0.14 0.14 0.15 0.15 0.15 0.15 0.14 0.13 0.12 0.13 0.15 0.13 0.16 0.22 0.26 0.26
Wind_Speed
22 23 24 27 29 27 26 26 27 23 24 25 23 25 27 27 27 27 27 28 29 29 29 30 30 30 30 29 29 29 29 30 30 31 31 32 32 33
22 22 21 23 28 26 25 24 25 24 21 23 24 23 25 26 28 28 27 26 28 28 29 29 29 29 28 27 28 28 29 31 32 32 32 32 32 33
23 23 22 22 23 22 25 24 23 22 21 21 22 22 22 23 23 23 24 24 24 25 26 26 25 25 25 26 27 28 29 30 30 31 32 33 34 35
24 25 25 26 24 24 22 24 26 23 21 21 20 20 19 21 21 22 24 25 25 23 23 25 25 25 26 27 28 30 31 32 33 34 35 36 37 38
25 27 29 28 28 27 27 24 27 28 27 23 21 19 21 22 22 24 27 29 28 28 30 30 29 29 30 30 31 31 34 37 37 37 38 39 41 42
22 26 28 30 29 28 29 27 27 27 26 27 25 25 24 24 26 27 27 29 29 28 26 28 31 31 32 32 34 35 34 33 35 38 39 40 42 43
19 23 24 27 27 29 28 27 29 28 27 27 28 28 28 28 28 27 26 26 27 28 28 27 28 29 30 31 33 34 35 36 37 39 41 43 44 45
14 16 17 22 24 24 25 26 27 26 27 27 27 26 28 28 28 28 27 26 27 29 30 31 31 32 33 34 34 36 37 39 40 42 44 44 45 45
14 14 15 16 18 20 21 22 24 25 26 26 26 26 26 28 28 29 29 30 30 31 32 32 34 35 35 36 38 39 40 42 42 43 44 44 44 45
12 12 13 14 16 18 18 18 19 21 23 23 24 25 26 27 29 30 31 30 30 32 33 35 36 37 38 38 39 40 41 42 42 43 43 43 43 43
13 12 14 14 15 16 16 17 17 18 19 20 22 23 24 25 28 29 30 31 32 34 35 35 36 37 38 39 40 41 41 42 42 42 42 41 42 41
15 15 15 16 18 18 19 19 19 21 22 22 24 25 25 26 28 31 32 33 34 35 36 37 38 38 39 40 40 40 39 37 37 37 36 36 36 36
16 16 16 17 19 20 21 22 22 22 22 22 23 24 26 27 27 28 29 32 34 35 36 36 36 35 35 34 34 33 34 34 34 33 33 34 35 35
18 17 17 16 17 18 21 21 21 22 22 23 24 25 26 27 28 30 31 30 29 30 31 31 31 32 32 32 31 32 32 31 32 32 33 34 35 35
18 17 17 16 17 17 18 20 23 23 24 24 24 26 27 27 27 27 27 27 27 27 28 28 28 28 28 28 29 30 30 31 31 33 34 35 35 35
17 16 16 16 16 18 19 20 21 23 23 24 25 26 26 26 25 26 26 25 25 25 24 24 25 26 27 27 28 29 30 31 33 34 35 36 35 35
18 17 17 17 18 18 19 20 20 20 22 22 22 22 22 22 22 22 22 22 23 24 25 26 26 27 27 28 30 31 32 33 34 35 35 36 35 34
15 15 16 17 16 16 17 17 17 17 18 18 19 19 19 20 21 22 23 23 24 25 26 27 28 29 30 30 31 32 33 34 35 36 35 35 34 33
12 12 13 13 13 14 14 15 15 16 17 17 18 19 20 21 22 23 24 25 26 27 28 29 29 30 30 31 32 33 34 35 35 35 35 34 33 32
9 10 11 12 13 14 14 15 16 17 18 19 20 21 22 23 24 25 26 26 27 28 28 29 30 31 31 32 33 34 34 34 34 34 34 33 33 32
11 11 12 13 14 15 16 17 18 19 20 21 22 23 24 24 25 25 26 27 28 29 29 30 31 31 31 32 32 33 34 34 34 34 34 33 31 28
13 14 15 15 16 17 18 19 20 21 21 22 23 23 24 25 26 26 27 28 29 29 30 31 31 31 32 32 33 34 35 35 35 34 33 32 29 27
15 15 16 17 18 19 20 20 21 22 22 23 24 25 25 26 27 28 28 29 30 30 31 32 32 32 33 34 34 35 35 35 33 32 31 30 29 28
Wind_Direction
237 233 231 226 221 221 220 222 220 222 227 229 232 234 235 236 236 240 244 248 252 258 263 265 268 267 266 266 266 267 270 272 276 279 280 284 286 287
232 230 226 222 216 221 218 216 222 224 228 230 234 235 236 237 242 245 247 249 257 260 264 268 268 266 264 264 266 268 271 275 277 280 281 284 286 288
229 226 223 216 214 215 213 219 220 228 230 232 233 240 239 236 237 239 244 251 258 264 265 267 265 264 263 265 268 271 274 276 278 281 282 284 286 289
230 229 227 223 226 221 221 227 224 225 232 237 230 231 234 234 240 244 252 255 262 268 266 266 263 264 267 270 272 274 276 278 280 282 283 285 287 289
237 233 231 229 229 230 230 233 231 234 236 234 234 233 240 244 250 257 259 261 263 264 268 264 265 267 269 272 274 278 279 279 281 283 286 285 288 290
238 235 231 231 232 232 232 236 233 230 238 234 239 243 247 254 259 264 262 261 262 265 268 266 267 268 271 273 277 277 282 284 284 286 287 288 289 289
239 234 233 232 233 234 235 235 232 233 236 241 246 250 252 258 260 262 263 259 263 263 266 269 270 272 274 274 277 282 283 285 286 288 288 290 291 291
233 229 229 228 228 232 232 230 229 234 240 244 248 251 256 256 260 261 260 262 265 263 268 270 272 275 276 276 279 283 284 287 288 289 290 291 291 291
229 229 227 226 226 227 229 230 234 239 243 245 250 255 256 259 260 260 261 266 267 270 270 273 274 275 277 278 281 283 286 288 290 291 291 292 293 293
225 226 224 226 228 229 230 233 236 239 243 247 251 257 262 263 263 263 264 265 268 272 272 275 275 277 278 280 282 284 287 289 289 291 292 292 293 294
230 232 233 232 231 228 230 232 236 240 246 249 255 263 266 267 266 266 266 267 272 274 275 276 277 278 279 281 283 285 287 288 290 291 292 293 294 295
239 242 244 242 238 239 240 241 245 248 252 257 262 267 270 272 272 270 269 271 273 275 276 278 278 280 281 283 283 285 287 289 291 293 294 295 296 297
243 247 250 252 248 248 248 249 252 252 256 261 265 270 273 273 274 275 275 275 277 279 278 278 278 280 283 284 285 283 287 290 292 293 294 297 298 299
246 250 252 253 252 253 253 250 250 255 260 264 268 273 275 276 278 280 281 280 282 280 280 281 281 280 282 284 285 286 289 292 294 295 297 299 299 299
245 245 248 252 253 255 253 254 256 262 265 268 271 274 277 278 280 282 281 281 284 284 285 284 283 283 285 287 287 289 292 294 295 297 299 300 300 300
243 248 249 254 256 260 260 261 263 265 267 270 272 275 277 278 279 281 281 283 284 286 287 286 286 287 288 289 289 292 294 295 297 299 300 300 300 300
247 252 256 257 260 264 266 265 266 268 271 272 274 274 276 277 279 280 282 284 285 286 288 289 288 289 290 291 292 294 296 297 298 299 300 300 299 300
251 256 260 263 265 266 267 267 268 269 271 272 273 275 276 278 280 282 284 285 287 288 289 290 291 289 290 292 294 295 297 298 299 300 300 300 298 297
256 257 259 262 264 266 266 268 270 273 273 275 277 277 278 281 282 284 286 287 288 289 290 291 293 294 294 294 295 296 297 299 300 300 300 299 298 295
256 259 261 264 266 267 269 271 273 275 276 277 279 281 282 283 285 286 288 289 289 290 291 293 295 295 294 294 295 298 298 299 300 301 302 300 298 294
264 266 268 269 271 272 274 275 276 277 278 280 282 283 284 285 286 287 289 289 290 291 292 293 294 294 295 296 297 298 300 300 299 300 301 300 299 293
271 272 274 274 274 275 277 278 280 281 282 283 284 285 286 286 288 289 290 291 291 292 293 293 294 295 296 296 296 298 299 300 300 300 298 295 295 292
274 275 276 277 278 279 280 280 281 282 283 284 285 286 287 288 289 290 290 291 291 292 293 294 294 295 295 296 297 298 299 299 299 300 298 298 293 288